Home   Weather   Calgary   Past weeks

Flag for Canada Past Weather in Calgary, Alberta, Canada — Yesterday and Last 2 Weeks

Now
66 °F

Mostly cloudy.


Feels Like: 66 °F
Forecast: 43 / 72 °F
Wind: 2 mph from North

Location: Calgary International

Current Time: Aug 20, 2017 at 1:30:59 pm

Latest Report: Aug 20, 2017 at 1:00 pm


Visibility: 10 mi

Pressure: 29.99 "Hg (26.49 "Hg at 1063m altitude)

Humidity: 32%

Dew Point: 36 °F

Location of CalgaryLocation

Past Weather in Calgary — Graph

°F

Calgary Temperature Yesterday

Maximum temperature yesterday: 66 °F (at 5:00 pm)
Minimum temperature yesterday: 50 °F (at 2:00 am)
Average temperature yesterday: 57 °F

High & Low Weather Summary for the Past Weeks

 TemperatureHumidityPressure
High86 °F (Aug 13, 2:00 pm)94% (Aug 6, 4:00 am)30.27 "Hg (Aug 6, 4:00 am)
Low45 °F (Aug 15, 5:00 am)15% (Aug 18, 6:00 pm)29.61 "Hg (Aug 13, 2:00 pm)
Average63 °F58%30.02 "Hg
* Reported Aug 5 12:00 pm — Aug 20 12:00 pm, Calgary. Weather by CustomWeather, © 2017

Note: Actual official high and low records may vary slightly from our data, if they occured in-between our weather recording intervals... More about our weather records

Advertising

Calgary Weather History for the Previous 24 Hours

Scroll right to see more
 ConditionsComfort  
Time TempWeatherWind HumidityBarometerVisibility
12:00 pm
Sun, Aug 20
63 °FOvercast.3 mph39%30.01 "Hg15 mi
11:00 am59 °FOvercast.No wind42%30.04 "Hg15 mi
10:00 am57 °FOvercast.2 mph44%30.04 "Hg15 mi
9:00 am54 °FPartly sunny.6 mph51%30.04 "Hg15 mi
8:00 am50 °FPartly sunny.8 mph58%30.05 "Hg15 mi
7:00 am46 °FPartly sunny.No wind62%30.05 "Hg15 mi
6:00 am45 °FPassing clouds.No wind76%30.05 "Hg15 mi
5:00 am46 °FPassing clouds.3 mph71%30.05 "Hg15 mi
4:00 am48 °FPassing clouds.No wind62%30.03 "Hg15 mi
3:00 am52 °FPassing clouds.3 mph58%30.03 "Hg15 mi
2:00 am54 °FClear.8 mph51%30.04 "Hg15 mi
1:00 am55 °FPassing clouds.7 mph44%30.04 "Hg15 mi
12:00 am55 °FClear.7 mph44%30.05 "Hg15 mi
11:00 pm
Sat, Aug 19
54 °FPassing clouds.8 mph51%30.05 "Hg15 mi
10:00 pm57 °FPassing clouds.10 mph44%30.05 "Hg15 mi
9:00 pm59 °FPassing clouds.8 mph42%30.03 "Hg15 mi
8:00 pm63 °FPartly sunny.12 mph37%30.01 "Hg20 mi
7:00 pm64 °FScattered clouds.12 mph34%30.00 "Hg30 mi
6:00 pm66 °FPassing clouds.8 mph32%30.00 "Hg30 mi
5:00 pm66 °FPassing clouds.7 mph32%30.00 "Hg30 mi
4:00 pm64 °FPassing clouds.7 mph37%30.02 "Hg40 mi
3:00 pm63 °FPassing clouds.8 mph34%30.03 "Hg40 mi
2:00 pm64 °FPassing clouds.12 mph34%30.04 "Hg40 mi
1:00 pm61 °FPassing clouds.7 mph34%30.05 "Hg40 mi
Weather by CustomWeather, © 2017

See weather overviewHow to use our weather pages